www.pogodaiklimat.ru

Погода и климат >> Архив погоды >> Россия >> Якутия >> Хабардино


ПОГОДА в Хабардино

  • Прогноз погоды в Хабардино
  • Монитор погоды в Хабардино

АРХИВ ПОГОДЫ в Хабардино

Время (UTC), дата Ветер
(напр.,м/с)
 
Видим.   Явления Облачность Т
(С)
Тd
(С)
f
(%)
Тe
(С)
Тes
(С)
Комфортность P
(гПа)
Po
(гПа)
Тmin
(С)
Tmax
(С)
R
(мм)
R24
(мм)
S
(см)
00 18.03 штиль 0 50 км 3/0
[Ci fib]
-37.7 -40.5 75 -38 -37 опасность
обморожения
1027.3 990.7 -37.8 36
03 18.03 штиль 0 50 км ясно -25.9 -29.1 74 -26 -21 1025.4 990.5
06 18.03 СЗ 1 50 км 3/0
[Ci fib]
-15.6 -19.8 70 -18 -14 1023.4 989.9
09 18.03 С 1 50 км 6/0
[Ci fib]
-14.0 -20.1 60 -16 -16 1023.1 989.8
12 18.03 ЮЗ 2 20 км 6/0
[Ci fib]
-23.6 -28.4 65 -30 -30 1024.7 990.1 -14.0
15 18.03 штиль 0 20 км 8/0
[Ci fib]
-28.4 -31.5 75 -28 -28 1025.5 990.3
18 18.03 штиль 0 20 км 8/0
[Ci fib]
-30.2 -33.2 75 -30 -30 1026.2 990.7
21 18.03 штиль 0 20 км 6/0
[Ci fib]
-32.8 -35.8 74 -33 -33 опасность
обморожения
1026.5 990.6
00 19.03 штиль 0 50 км 6/0
[Ci fib]
-34.1 -37.8 69 -34 -33 опасность
обморожения
1027.2 991.1 -34.2 36
03 19.03 штиль 0 50 км 4/0
[Ci fib]
-22.4 -25.6 75 -22 -18 1025.3 991.0
06 19.03 З 1 50 км 3/0
[Ci fib]
-14.4 -18.7 70 -17 -13 1023.9 990.6
09 19.03 штиль 0 50 км 3/0
[Ci fib]
-10.8 -16.1 65 -11 -10 1023.3 990.4
12 19.03 Ю 1 20 км 4/0
[Ci fib]
-22.0 -26.9 64 -25 -25 1025.5 991.2 -10.7
15 19.03 ЮЗ 1 20 км ясно -30.4 -33.4 75 -35 -35 опасность
обморожения
1027.9 992.3
18 19.03 Ю 1 20 км ясно -31.8 -34.8 75 -36 -36 опасность
обморожения
1029.1 993.2
21 19.03 штиль 0 20 км ясно -40.0 -43.4 70 -40 -40 опасность
обморожения
1029.2 992.1
00 20.03 штиль 0 50 км 4/0
[Ci fib]
-40.4 -43.9 69 -40 -40 опасность
обморожения
1029.6 992.5 -40.5 36
03 20.03 штиль 0 50 км ясно -26.7 -30.6 69 -27 -22 1026.5 991.4
06 20.03 штиль 0 50 км 3/0
[Ci fib]
-12.3 -17.5 65 -12 -8 1023.4 990.4
09 20.03 СВ 1 50 км 3/0
[Ci fib]
-8.5 -15.0 59 -11 -10 1021.7 989.2
12 20.03 ЮЗ 1 20 км 3/0
[Ci fib]
-18.8 -24.6 60 -22 -22 1023.7 989.8 -7.0
15 20.03 штиль 0 20 км ясно -27.7 -30.8 75 -28 -28 1025.6 990.4
18 20.03 штиль 0 20 км ясно -29.1 -32.2 74 -29 -29 1026.5 991.2
21 20.03 штиль 0 20 км ясно -34.5 -38.1 70 -35 -35 опасность
обморожения
1026.7 990.5
00 21.03 штиль 0 50 км ясно -35.8 -38.7 75 -36 -35 опасность
обморожения
1027.6 991.2 -36.1 36
03 21.03 С 1 50 км ясно -22.9 -26.9 70 -26 -22 1025.5 991.0
06 21.03 штиль 0 50 км ясно -8.5 -13.8 66 -9 -4 1022.6 990.1
09 21.03 штиль 0 50 км 3/0
[Ci fib]
-4.7 -11.4 59 -5 -4 1020.9 988.9
12 21.03 ЮЗ 1 20 км 4/0
[Ci fib]
-13.2 -19.3 60 -16 -16 1021.6 988.5 -3.8
15 21.03 штиль 0 20 км 6/0
[Ci fib]
-23.5 -26.0 80 -24 -24 1021.8 987.4
18 21.03 штиль 0 20 км 4/0
[Ci fib]
-25.4 -27.8 80 -25 -25 1021.2 986.5
21 21.03 С 1 20 км 8/0
[Ci fib]
-23.3 -25.8 80 -27 -27 1016.5 982.3
00 22.03 З 2 50 км 10/0
[Cs]
-9.7 -13.8 72 -14 -14 1008.9 976.5 -25.4 36
03 22.03 ЮЗ 1 50 км 10/0
[Cs]
-7.6 -9.8 84 -10 -6 1005.0 973.2
06 22.03 З 2 20 км слаб. снег 10/0
[Ac trans Cs]
-4.4 -7.9 77 -8 -6 1001.9 970.5
09 22.03 З 4 50 км {снег} 10/0
[Ac trans Cs]
-3.2 -7.1 74 -9 -9 1000.3 969.1
12 22.03 ЮЗ 2 20 км {снег} 9/0
[Ac trans Ci fib]
-4.5 -7.2 81 -9 -9 999.3 968.0 -3.2 0.0
15 22.03 З 2 20 км 10/0
[Ac As]
-5.9 -7.8 86 -10 -10 998.5 967.0
18 22.03 СЗ 1 10 км слаб. снег 10/0
[Ac As]
-8.0 -9.4 90 -10 -10 997.5 965.8
21 22.03 З 1 10 км слаб. снег 10/0
[Ac As]
-9.9 -11.1 91 -12 -12 996.6 964.6
00 23.03 С 2 20 км слаб. снег 10/0
[Ac trans Cs]
-10.3 -13.1 80 -15 -14 998.1 966.1 -10.4 0.5 37
03 23.03 СЗ 4 20 км слаб. снег {метель} 10/0
[Ac trans Cs]
-16.4 -20.6 70 -25 -23 1001.6 968.8
06 23.03 С 5 20 км слаб. снег {метель} 10/0
[Ac trans Cs]
-17.7 -21.9 70 -27 -26 1003.9 970.7
09 23.03 С 4 20 км слаб. снег {метель} 10/0
[Ac trans Cs]
-17.2 -20.6 75 -25 -25 1006.4 973.3
12 23.03 С 2 10 км слаб. снег {метель} 10/0
[Ac As]
-17.5 -20.9 75 -23 -23 1008.6 975.4 -10.3 1
15 23.03 С 2 10 км слаб. снег 10/0
[Ac As]
-17.9 -20.5 80 -23 -23 1010.6 977.2
18 23.03 С 1 10 км слаб. снег 10/0
[Ac As]
-18.5 -21.1 80 -21 -21 1012.0 978.6
21 23.03 С 3 10 км слаб. снег 10/0
[Ac As]
-20.0 -23.3 75 -28 -28 1014.4 980.6
00 24.03 СЗ 2 50 км {снег, метель} 6/0
[Ci fib]
-23.6 -26.9 74 -30 -29 1017.3 982.9 -23.7 1 37
03 24.03 СЗ 2 50 км 3/0
[Ci fib]
-19.6 -23.7 70 -25 -21 1018.3 984.4
06 24.03 С 2 50 км ясно -15.7 -20.8 65 -21 -17 1018.7 985.4
09 24.03 С 3 50 км 3/0
[Ci fib]
-14.0 -21.1 55 -20 -20 1019.7 986.5
12 24.03 ЮЗ 1 50 км ясно -19.3 -26.1 55 -22 -22 1021.8 988.0 -13.9
15 24.03 З 1 20 км ясно -29.9 -34.5 64 -34 -34 опасность
обморожения
1024.3 988.8
18 24.03 штиль 0 20 км ясно -32.2 -35.9 69 -32 -32 опасность
обморожения
1025.5 989.7
21 24.03 штиль 0 20 км ясно -39.2 -42.5 71 -39 -39 опасность
обморожения
1026.8 989.9

 

Местоположение метеостанции Хабардино (Якутия, Россия): широта 64.60 долгота 112.50 высота над уровнем моря 251 м.

В архиве по умолчанию представлена погода в Хабардино за последнюю неделю. Архивные данные за месяц целиком и за предыдущие месяцы, начиная с января 2011 года, Вы можете получить, выбрав интересующий диапазон дат из раскрывающегося списка и нажав кнопку "Ввод!".


*Определитесь, кто Вы:
робот инопланетянин человек

Внимание! Время в таблицах - всемирное. Для получения местного времени необходимо прибавить поправку, которая равна 9 ч.

Смотрите также архив погоды в соседних городах и на ближайших метеорологических станциях:

Погода в Айхале (Якутия, Россия) (156 км)
Погода в Чернышевском (Якутия, Россия) (175 км)
Погода в Шелагонцах (Якутия, Россия) (200 км)
Погода в Чумпуруке (Якутия, Россия) (215 км)
Погода в Полярном (Якутия, Россия) (237 км)
Погода в Туой-Хае (Якутия, Россия) (239 км)
Погода в Мирном (Якутия, Россия) (239 км)
Погода в Эйке (Якутия, Россия) (278 км)
Погода в Крестяхе (Якутия, Россия) (315 км)
Погода в Нюрбе (Якутия, Россия) (319 км)

Пояснения к столбцам:

Ветер - указаны скорость ветра в м/с - средняя за 10 мин, порывы в срок и между сроками (в фигурных скобках) и направление, откуда дует ветер: С - северный, СВ - северо-восточный, В - восточный, ЮВ - юго-восточный, Ю - южный, ЮЗ - юго-западный, З - западный, СЗ - северо-западный.
Видимость - горизонтальная дальность видимости в метрах или километрах. При видимости от 1 до 10 км при отсутствии осадков обычно наблюдается дымка, при ухудшении видимости до 1 км и менее - туман. В сухую погоду видимость может ухудшаться дымом, пылью или мглою.
Явления - указаны атмосферные явления, наблюдавшиеся в срок или в последний час перед сроком; фигурными скобками обозначены явления, наблюдавшиеся между сроками (за 1-3 часа до срока); квадратными скобками обозначены град или гололедные отложения с указанием их диаметра в мм.
Облачность - указаны через наклонную черту общая и нижняя облачность в баллах и высота нижней границы облаков в метрах; квадратными скобками обозначены формы облаков: Ci - перистые, Cs - перисто-слоистые, Cc - перисто-кучевые, Ac - высококучевые, As - высокослоистые, Sc - слоисто-кучевые, Ns - слоисто-дождевые, Cu - кучевые, Cb - кучево-дождевые. Подробнее классификацию облаков см. в Атласе облаков (PDF).
T - Температура воздуха - температура, измеренная на высоте 2 м над землей.
Td - Температура точки росы - температура, при понижении до которой содержащийся в воздухе водяной пар достигнет насыщения.
f - Относительная влажность воздуха - влажноcть воздуха, измеренная на высоте 2 м над землей.
Te - Эффективная температура - температура, которую ощущает одетый по сезону человек в тени. Характеристика душности погоды. При расчете учитывается влияние влажности воздуха и скорости ветра на теплоощущения человека.
Tes - Эффективная температура на солнце - температура, которую ощущает человек, с поправкой на солнечный нагрев. Характеристика знойности погоды. Зависит от высоты солнца над горизонтом, облачности и скорости ветра. Ночью, в пасмурную погоду, а также при ветре 12 м/с и более поправка равна нулю.
P - Атмосферное давление - приведенное к уровню моря атмосферное давление.
Po - Атмосферное давление - измеренное на уровне метеостанции атмосферное давление.
Tmin - Минимальная температура - минимум температуры воздуха на высоте 2 м над землей.
Tmax - Максимальная температура - максимум температуры воздуха на высоте 2 м над землей.
R - Количество осадков - Количество выпавших осадков за период времени, мм. При наведении курсора мыши на число - период времени, за который выпало указанное количество осадков.
R24 - Количество осадков - Количество выпавших осадков за 24 часа, мм.
S - Снежный покров - Высота снежного покрова, см. При наведении курсора мыши на число - состояние снежного покрова и степень покрытия местности в баллах.